DW5656 Weather Reports


time (UTC)temp
F
wind
direction
speed
knots
gust
knots
rain 1hr
in
rain 24hr
in
rain mn
in
humidity
%
barometer
mb
20260903205419 93 232 3.5 7.0 0.00 0.00 0.00 51 1018.2
20260903204520 94 242 3.5 7.0 0.00 0.00 0.00 49 1018.1
20260903203619 95 262 3.5 7.8 0.00 0.00 0.00 48 1017.8
20260903202719 95 265 3.5 9.6 0.00 0.00 0.00 48 1017.6
20260903201819 95 260 3.5 7.8 0.00 0.00 0.00 48 1017.5
20260903200940 95 249 3.5 7.8 0.00 0.00 0.00 48 1017.4
20260903200019 96 226 3.5 8.7 0.00 0.00 0.00 48 1017.2
20260903195119 97 235 3.5 7.8 0.00 0.00 0.00 47 1017.1
20260903194219 98 239 4.3 7.8 0.00 0.00 0.00 45 1016.9
20260903193340 98 242 3.5 11.3 0.00 0.00 0.00 43 1016.9
20260903192419 100 248 2.6 6.1 0.00 0.00 0.00 40 1016.7
20260903191519 101 257 2.6 6.1 0.00 0.00 0.00 36 1016.5
20260903190619 102 254 3.5 6.1 0.00 0.00 0.00 33 1016.5
20260903185740 103 237 2.6 7.0 0.00 0.00 0.00 29 1016.4
20260903184819 106 278 0.9 7.0 0.00 0.00 0.00 25 1016.3
20260903183920 107 303 0.9 1.7 0.00 0.00 0.00 24 1016.2
20260903183019 108 303 0.9 1.7 0.00 0.00 0.00 23 1016.2
20260903182119 108 303 0.9 2.6 0.00 0.00 0.00 23 1016.2
20260903181219 109 303 0.9 1.7 0.00 0.00 0.00 22 1016.2
20260903180319 109 303 0.9 2.6 0.00 0.00 0.00 21 1016.2
20260903175419 110 301 0.9 2.6 0.00 0.00 0.00 22 1016.2
20260903174519 110 301 1.7 2.6 0.00 0.00 0.00 22 1016.2
20260903173619 109 317 1.7 3.5 0.00 0.00 0.00 21 1016.2
20260903172719 109 334 1.7 3.5 0.00 0.00 0.00 22 1016.3
20260903171819 109 329 3.5 5.2 0.00 0.00 0.00 21 1016.3
20260903170919 109 352 2.6 6.1 0.00 0.00 0.00 21 1016.2
20260903170040 110 340 2.6 5.2 0.00 0.00 0.00 21 1016.3
20260903165119 110 329 1.7 5.2 0.00 0.00 0.00 22 1016.3
20260903164219 110 346 2.6 6.1 0.00 0.00 0.00 21 1016.3
20260903163319 109 326 3.5 7.0 0.00 0.00 0.00 20 1016.3
20260903162419 109 325 3.5 7.0 0.00 0.00 0.00 20 1016.4
20260903161518 109 336 2.6 7.0 0.00 0.00 0.00 21 1016.3
20260903160618 109 349 2.6 5.2 0.00 0.00 0.00 21 1016.3
20260903155718 109 352 3.5 7.0 0.00 0.00 0.00 21 1016.4
20260903154840 109 17 2.6 7.8 0.00 0.00 0.00 21 1016.5
20260903153919 109 350 3.5 7.0 0.00 0.00 0.00 23 1016.5
20260903153018 108 339 2.6 7.0 0.00 0.00 0.00 23 1016.5
20260903152119 109 331 2.6 6.1 0.00 0.00 0.00 23 1016.6
20260903151218 108 326 2.6 7.8 0.00 0.00 0.00 24 1016.6
20260903150318 108 308 3.5 6.1 0.00 0.00 0.00 27 1016.7
20260903145418 107 338 3.5 7.0 0.00 0.00 0.00 27 1016.8
20260903144518 108 32 3.5 7.0 0.00 0.00 0.00 28 1016.9
20260903143618 107 338 3.5 7.8 0.00 0.00 0.00 28 1017.1
20260903142718 107 351 2.6 8.7 0.00 0.00 0.00 27 1017.1
20260903141818 107 3 2.6 5.2 0.00 0.00 0.00 27 1017.2
20260903140918 107 286 2.6 5.2 0.00 0.00 0.00 29 1017.3
20260903140018 107 289 1.7 5.2 0.00 0.00 0.00 29 1017.3
20260903135139 107 5 1.7 4.3 0.00 0.00 0.00 29 1017.4
20260903134218 106 351 1.7 4.3 0.00 0.00 0.00 29 1017.5
20260903133318 106 26 2.6 4.3 0.00 0.00 0.00 30 1017.5
20260903132419 105 6 2.6 8.7 0.00 0.00 0.00 30 1017.5
20260903131518 106 39 1.7 7.0 0.00 0.00 0.00 30 1017.5
20260903130639 105 305 2.6 4.3 0.00 0.00 0.00 31 1017.6
20260903125718 104 15 1.7 7.8 0.00 0.00 0.00 30 1017.7
20260903124818 104 160 1.7 4.3 0.00 0.00 0.00 34 1017.7
20260903123918 103 59 1.7 6.1 0.00 0.00 0.00 34 1017.8
20260903123039 102 75 2.6 7.0 0.00 0.00 0.00 34 1017.8
20260903122118 101 32 2.6 7.0 0.00 0.00 0.00 36 1017.9
20260903121218 101 18 1.7 4.3 0.00 0.00 0.00 36 1018.2
20260903120318 101 58 2.6 7.0 0.00 0.00 0.00 36 1018.3
20260903115418 100 36 2.6 7.8 0.00 0.00 0.00 37 1018.4
20260903114518 100 64 2.6 7.0 0.00 0.00 0.00 37 1018.5
20260903113618 99 88 4.3 8.7 0.00 0.00 0.00 37 1018.7
20260903112718 98 59 3.5 8.7 0.00 0.00 0.00 39 1018.7
20260903111818 97 30 3.5 8.7 0.00 0.00 0.00 41 1018.8
20260903110919 96 20 3.5 7.0 0.00 0.00 0.00 43 1018.9
20260903110018 96 77 3.5 7.0 0.00 0.00 0.00 41 1019.0
20260903105118 95 53 3.5 6.1 0.00 0.00 0.00 44 1018.9
20260903104217 94 43 3.5 7.8 0.00 0.00 0.00 45 1019.0
20260903103318 93 38 3.5 7.8 0.00 0.00 0.00 47 1019.2
20260903102439 93 21 3.5 8.7 0.00 0.00 0.00 47 1019.2
20260903101518 92 14 3.5 7.8 0.00 0.00 0.00 48 1019.3
20260903100617 90 21 3.5 8.7 0.00 0.00 0.00 50 1019.2
20260903095738 89 32 3.5 7.0 0.00 0.00 0.00 51 1019.4
20260903094839 89 29 3.5 8.7 0.00 0.00 0.00 51 1019.4
20260903093917 88 55 4.3 7.8 0.00 0.00 0.00 51 1019.3
20260903093038 87 43 3.5 10.4 0.00 0.00 0.00 52 1019.3
20260903092117 87 55 3.5 8.7 0.00 0.00 0.00 52 1019.2
20260903091217 86 58 4.3 7.8 0.00 0.00 0.00 53 1019.2
20260903090338 86 61 3.5 8.7 0.00 0.00 0.00 54 1019.0
20260903085417 85 53 3.5 7.8 0.00 0.00 0.00 55 1019.1
20260903084517 84 41 5.2 8.7 0.00 0.00 0.00 56 1019.2
20260903083617 83 54 5.2 11.3 0.00 0.00 0.00 57 1019.0
20260903082717 82 46 5.2 8.7 0.00 0.00 0.00 57 1019.1
20260903081817 82 49 3.5 9.6 0.00 0.00 0.00 58 1019.1
20260903080917 81 46 4.3 7.8 0.00 0.00 0.00 59 1019.1
20260903080038 81 48 3.5 7.8 0.00 0.00 0.00 59 1019.1
20260903075117 80 47 4.3 8.7 0.00 0.00 0.00 59 1019.2
20260903074217 80 47 3.5 8.7 0.00 0.00 0.00 59 1019.2
20260903073338 80 50 2.6 7.0 0.00 0.00 0.00 58 1019.2
20260903072417 80 53 2.6 5.2 0.00 0.00 0.00 59 1019.1
20260903071517 79 50 2.6 6.1 0.00 0.00 0.00 59 1019.1
20260903070618 79 52 2.6 6.1 0.00 0.00 0.00 60 1018.9
20260903065717 78 46 3.5 7.8 0.00 0.00 0.00 60 1018.8
20260903064817 78 52 3.5 7.8 0.00 0.00 0.00 61 1018.8
20260903063917 78 49 2.6 8.7 0.00 0.00 0.00 61 1018.7
20260903063017 78 47 3.5 6.1 0.00 0.00 0.00 62 1018.6
20260903062117 78 37 3.5 7.0 0.00 0.00 0.00 62 1018.6
20260903061217 78 40 2.6 7.0 0.00 0.00 0.00 63 1018.5
20260903060317 77 50 3.5 6.1 0.00 0.00 0.00 64 1018.3
20260903055417 77 72 3.5 7.0 0.00 0.00 0.00 65 1018.1
20260903054517 78 48 3.5 7.0 0.00 0.00 0.00 65 1018.1
20260903053617 78 49 2.6 7.8 0.00 0.00 0.00 65 1018.0
20260903052717 78 57 1.7 4.3 0.00 0.00 0.00 67 1017.9
20260903051817 78 360 2.6 4.3 0.00 0.00 0.00 68 1017.9
20260903050918 78 23 2.6 5.2 0.00 0.00 0.00 68 1017.9
20260903050038 78 9 2.6 4.3 0.00 0.00 0.00 68 1017.8
20260903045117 78 5 2.6 4.3 0.00 0.00 0.00 68 1017.8
20260903044238 77 14 1.7 4.3 0.00 0.00 0.00 68 1017.8
20260903043317 78 11 1.7 3.5 0.00 0.00 0.00 67 1017.8
20260903042417 78 10 1.7 3.5 0.00 0.00 0.00 67 1017.9
20260903041538 78 354 1.7 3.5 0.00 0.00 0.00 67 1017.8
20260903040617 78 331 0.9 2.6 0.00 0.00 0.00 66 1017.9
20260903035717 79 331 1.7 2.6 0.00 0.00 0.00 65 1017.9
20260903034817 79 324 1.7 4.3 0.00 0.00 0.00 65 1018.0
20260903033937 79 309 1.7 3.5 0.00 0.00 0.00 64 1018.0
20260903033017 79 284 0.9 3.5 0.00 0.00 0.00 66 1017.9
20260903032116 79 265 0.9 1.7 0.00 0.00 0.00 70 1018.0
20260903031216 79 265 0.9 1.7 0.00 0.00 0.00 71 1017.9
20260903030317 79 265 0.9 1.7 0.00 0.00 0.00 71 1017.9
20260903025416 79 265 0.9 2.6 0.00 0.00 0.00 71 1018.0
20260903024516 80 265 0.9 2.6 0.00 0.00 0.00 70 1017.9
20260903023616 80 265 0.9 2.6 0.00 0.00 0.00 69 1017.9
20260903022716 80 265 0.9 1.7 0.00 0.00 0.00 69 1017.9
20260903021816 81 265 0.9 1.7 0.00 0.00 0.00 69 1018.0
20260903020937 81 265 0.9 2.6 0.00 0.00 0.00 68 1018.0
20260903020016 81 265 0.9 2.6 0.00 0.00 0.00 67 1017.9
20260903015137 82 265 0.0 1.7 0.00 0.00 0.00 67 1017.7
20260903014216 82 265 0.9 2.6 0.00 0.00 0.00 67 1017.6
20260903013337 82 265 0.9 2.6 0.00 0.00 0.00 67 1017.7
20260903012416 82 265 0.9 3.5 0.00 0.00 0.00 67 1017.7
20260903011516 83 265 0.9 3.5 0.00 0.00 0.00 66 1017.9
20260903010616 83 275 1.7 3.5 0.00 0.00 0.00 65 1017.8
20260903005716 84 292 0.0 2.6 0.00 0.00 0.00 64 1017.9
20260903004816 84 0 0.0 0.0 0.00 0.00 0.00 64 1017.8
20260903003916 84 0 0.0 0.0 0.00 0.00 0.00 63 1017.7
20260903003016 84 0 0.0 0.0 0.00 0.00 0.00 63 1017.7
20260903002116 85 292 0.0 0.9 0.00 0.00 0.00 62 1017.8
20260903001216 85 293 0.9 2.6 0.00 0.00 0.00 62 1017.9
20260903000337 86 294 0.9 1.7 0.00 0.00 0.00 61 1017.9
20260902235416 86 328 0.9 1.7 0.00 0.00 0.00 59 1017.8
20260902234516 86 350 0.9 1.7 0.00 0.00 0.00 57 1017.8
20260902233616 87 350 0.9 1.7 0.00 0.00 0.00 57 1017.9
20260902232716 87 350 0.9 1.7 0.00 0.00 0.00 56 1017.9
20260902231837 87 345 1.7 3.5 0.00 0.00 0.00 55 1017.8
20260902230916 88 325 0.9 3.5 0.00 0.00 0.00 55 1017.8
20260902230016 88 311 0.0 1.7 0.00 0.00 0.00 57 1017.9
20260902225116 88 0 0.0 0.0 0.00 0.00 0.00 57 1017.8
20260902224237 88 311 0.9 1.7 0.00 0.00 0.00 56 1017.9
20260902223316 88 309 0.9 3.5 0.00 0.00 0.00 56 1017.8
20260902222416 88 307 0.9 3.5 0.00 0.00 0.00 56 1017.9
20260902221516 88 292 1.7 3.5 0.00 0.00 0.00 56 1017.9
20260902220615 88 288 1.7 3.5 0.00 0.00 0.00 56 1017.8
20260902215716 88 294 0.9 3.5 0.00 0.00 0.00 56 1017.7
20260902214816 88 283 0.9 2.6 0.00 0.00 0.00 56 1017.8
20260902213916 88 277 1.7 2.6 0.00 0.00 0.00 56 1017.7
20260902213015 88 277 1.7 3.5 0.00 0.00 0.00 56 1017.7
20260902212136 89 275 1.7 3.5 0.00 0.00 0.00 56 1017.6
20260902211215 89 271 1.7 5.2 0.00 0.00 0.00 56 1017.7
20260902210315 89 274 1.7 3.5 0.00 0.00 0.00 56 1017.6